Simultaneous Nadir Overpasses (SNOs) Predictions

Prediction of SNOs between AQUA and NOAA-19 Satellite Orbit:

Table of predicted SNOs for the next 14.0 days since TLE Epoch: 5/25/2018
Index Date (AQUA) Time (AQUA) Lat,Lon (AQUA) SZA (AQUA ) Date (NOAA-19) Time (NOAA-19) Lat,Lon (NOAA-19) SZA (NOAA-19 ) Distance(km) Time Diff (sec)
1 05/27/2018 18:57:57 -80.81, 37.20 118.58 05/27/2018 18:57:22 -80.80, 37.06 118.55 2.55 35
2 05/27/2018 19:47:24 80.80,-155.11 61.41 05/27/2018 19:48:16 80.81,-155.16 61.40 1.80 52
3 05/30/2018 00:31:41 80.79, 133.90 61.06 05/30/2018 00:30:52 80.81, 134.01 61.08 2.46 49
4 05/30/2018 01:21:08 -80.82, -58.79 118.90 05/30/2018 01:21:58 -80.81, -58.76 118.93 1.53 50
5 06/01/2018 06:05:24 -80.78,-129.42 119.27 06/01/2018 06:04:34 -80.80,-129.54 119.22 2.93 50
6 06/01/2018 06:54:52 80.81, 37.86 60.79 06/01/2018 06:55:29 80.80, 37.72 60.78 2.65 37
7 06/03/2018 11:39:09 80.81, -33.17 60.51 06/03/2018 11:38:05 80.80, -33.13 60.52 1.65 64
8 06/03/2018 12:28:35 -80.80, 134.56 119.52 06/03/2018 12:29:10 -80.81, 134.58 119.53 0.64 35
9 06/05/2018 17:12:52 -80.80, 63.56 119.77 06/05/2018 17:11:46 -80.80, 63.73 119.75 3.06 66
10 06/05/2018 18:02:19 80.81,-128.90 60.25 06/05/2018 18:02:41 80.80,-129.07 60.26 3.01 22




NCC Satellite Simultaneous Nadir Overpasses (SNOs) Prediction Service
